Location: Passau
(48.5830°N, 13.4830°E)
Time: 04:18:35
(UTC+01:00)

AO-109 - Visible Passes

Search period start: 06 December 2021 00:00
Search period end: 16 December 2021 00:00
Orbit: 474 x 522 km, 60.7° (Epoch: 05 December)

Date Brightness Start Highest point End Pass type
(mag) Time Alt. Az. Time Alt. Az. Time Alt. Az.
06 Dec ? 05:03:40 36° SE 05:03:40 36° SE 05:05:55 10° SE visible
06 Dec ? 06:38:18 10° W 06:39:19 11° WSW 06:40:29 10° SW visible
07 Dec ? 04:43:18 18° SE 04:43:18 18° SE 04:44:20 10° SE visible
07 Dec ? 06:17:57 12° WSW 06:17:57 12° WSW 06:19:14 10° SW visible
08 Dec ? 05:57:40 11° SW 05:57:40 11° SW 05:57:54 10° SW visible
14 Dec ? 19:09:49 10° SSW 19:10:39 16° SSW 19:10:39 16° SSW visible
15 Dec ? 18:48:12 10° SSW 18:50:16 29° SSW 18:50:16 29° SSW visible
